Wetbulb
54.81 53.47 51.70 50.22 49.74 48.33 47.85 47.47 47.79 48.85 49.54 49.66 49.99 49.92 50.63 51.22 51.58 51.10 50.19 50.13 49.86 48.90 48.86 49.57 49.15 49.95 50.92 51.02 50.34 50.01 48.74 47.26 43.45 42.99 45.42 46.99 45.65 43.78 44.70 45.37 45.74 47.76 47.50
55.97 53.29 51.31 50.16 49.21 47.82 47.54 47.44 48.28 48.56 49.54 49.75 49.88 49.97 50.50 50.94 51.34 50.77 50.35 50.32 50.31 49.17 49.00 49.23 49.01 50.23 50.30 49.94 49.56 48.25 47.15 47.18 46.67 44.07 44.01 44.03 44.32 43.10 42.50 41.33 41.77 41.87 42.85
56.21 52.95 51.49 49.66 48.58 47.85 47.83 47.50 48.18 48.61 49.12 49.51 49.79 49.60 50.14 50.64 51.27 50.93 51.26 50.61 50.62 50.21 50.10 49.54 49.41 49.57 47.59 46.60 46.71 46.69 46.14 46.05 44.95 45.24 42.51 43.18 43.27 42.40 40.95 38.39 37.70 38.41 40.17
56.01 52.81 51.23 49.75 48.66 48.47 47.85 47.66 47.97 48.72 48.57 49.20 49.72 49.62 50.06 50.62 51.20 50.68 50.89 50.82 50.61 50.50 50.57 50.22 49.76 49.63 47.46 46.24 45.21 44.11 44.30 43.73 44.36 44.82 42.80 41.18 41.26 40.16 38.96 39.55 36.57 32.10 37.17
55.46 52.41 51.44 49.95 49.09 48.61 47.09 47.24 47.95 48.28 48.66 49.32 49.29 49.64 49.75 50.70 51.13 50.31 50.82 50.35 50.43 50.01 49.42 50.02 49.56 46.10 43.12 45.36 45.79 43.65 43.86 43.46 44.54 43.65 42.06 40.12 38.45 34.89 36.83 34.15 32.52 32.88 35.42
54.47 52.31 52.01 49.18 48.67 46.78 46.48 46.73 47.37 47.90 48.34 48.84 48.73 49.06 49.02 50.38 45.37 45.31 48.75 50.15 50.48 50.46 49.42 47.91 46.13 39.73 42.42 42.32 42.66 43.15 44.66 44.43 43.67 42.61 41.84 40.92 39.25 37.64 35.22 34.30 33.97 34.72 36.08
52.99 51.73 50.15 48.62 47.14 45.98 46.36 46.44 47.06 47.19 48.07 48.23 48.43 48.78 48.52 49.21 43.99 44.19 44.17 50.26 50.33 50.86 50.55 48.26 44.96 44.46 41.95 44.10 41.74 41.81 40.69 42.61 43.46 42.84 41.85 41.98 39.78 37.65 34.72 34.31 35.59 35.78 35.29
51.30 50.06 48.65 47.44 46.28 45.93 45.72 46.02 46.67 47.11 47.56 47.93 48.02 48.37 48.41 48.17 43.49 43.38 42.91 49.51 49.88 50.17 49.97 48.45 46.96 43.45 44.28 44.35 43.97 42.39 41.81 41.98 41.79 42.27 41.81 40.62 40.90 39.23 39.47 40.50 39.26 35.17 33.24
49.16 48.26 47.45 47.22 46.07 45.25 44.76 45.48 46.51 46.81 47.11 47.54 47.95 48.16 47.65 46.78 42.31 42.56 46.33 48.62 47.28 46.29 46.78 46.42 45.94 44.85 40.25 41.92 43.67 41.80 40.12 38.97 39.89 41.43 42.00 41.74 41.10 40.36 39.04 38.53 34.36 34.34 33.82
47.42 47.17 47.50 47.09 46.03 45.50 45.13 45.20 46.32 46.88 46.41 46.80 46.60 47.88 43.79 45.46 41.68 42.27 46.78 48.42 46.38 44.71 44.13 42.83 38.02 44.29 39.84 41.84 44.19 41.88 38.63 37.13 37.38 36.77 37.25 38.37 38.91 38.59 38.61 41.45 38.15 34.52 33.26
44.65 45.99 46.25 46.44 45.70 46.13 45.53 45.43 45.90 45.45 45.22 45.41 45.06 45.60 44.65 45.59 43.32 42.45 44.32 46.98 47.05 45.99 44.98 41.90 41.47 40.07 40.51 41.45 42.95 43.13 42.28 38.29 38.40 36.34 34.84 34.13 35.22 37.04 36.13 36.52 38.56 36.98 34.16
42.32 42.07 41.79 43.99 44.62 45.01 44.80 44.07 44.57 44.45 43.67 42.77 42.72 39.24 36.47 42.52 40.22 42.01 43.26 44.76 45.08 46.73 44.47 41.88 40.78 39.79 40.71 41.31 41.52 40.92 39.76 38.12 37.41 35.97 35.61 33.82 34.00 33.80 33.62 33.98 34.72 32.32 33.50
39.02 38.35 38.86 38.89 39.78 42.85 43.73 43.18 42.62 43.47 42.48 41.81 42.32 41.85 38.81 37.27 40.91 41.18 41.99 41.92 42.43 44.27 41.18 41.65 40.32 39.97 40.51 41.08 40.42 39.06 36.64 38.27 37.23 35.27 35.99 34.89 34.16 34.54 33.80 32.88 32.70 33.08 33.08
36.35 36.90 37.23 39.58 39.01 40.12 42.07 42.55 42.93 42.26 41.41 39.88 40.89 41.62 40.16 38.64 40.01 40.37 39.94 41.88 38.51 40.67 38.69 39.32 39.78 40.48 41.34 40.76 37.23 38.10 38.07 38.74 39.04 39.52 38.00 33.44 33.26 33.44 33.26 32.89 32.71 32.53 33.08
34.84 35.22 36.12 37.64 39.89 38.32 39.44 41.06 41.41 43.10 42.81 40.75 41.26 41.91 39.53 38.79 40.70 41.89 40.96 39.57 40.59 38.22 36.53 35.46 35.28 36.73 37.98 37.26 35.64 36.73 35.99 35.99 36.90 34.90 34.54 33.98 33.44 33.44 32.71 32.53 32.53 32.35 33.08
33.89 33.59 33.80 35.91 37.26 37.66 37.76 36.67 37.49 38.24 38.94 39.97 40.83 41.68 38.45 41.39 39.91 40.01 40.17 40.06 38.27 38.37 34.54 35.46 36.01 37.62 38.49 38.16 37.08 35.81 34.90 35.81 36.19 35.27 34.92 35.08 35.07 34.52 33.62 32.53 32.35 32.89 33.44
34.09 33.92 33.60 33.98 35.07 36.56 36.34 37.97 36.44 35.78 38.30 38.77 39.34 39.65 40.26 39.34 39.34 39.43 40.26 39.68 38.69 39.85 36.37 37.64 38.00 37.80 37.64 37.62 37.98 37.27 36.17 36.70 34.90 36.17 36.17 35.81 35.08 34.36 34.16 33.44 32.71 32.53 32.71
32.62 33.01 33.60 33.44 34.15 34.71 35.27 35.79 36.98 37.48 36.70 35.08 36.60 38.16 38.63 38.28 38.58 39.06 39.42 38.96 36.37 35.79 34.74 36.91 36.91 37.27 37.27 37.44 37.08 36.90 35.45 35.45 35.63 35.81 35.63 35.08 34.90 34.71 33.08 33.80 33.62 33.80 33.26
31.27 32.03 33.06 33.44 33.62 33.80 33.98 34.34 34.89 35.43 35.43 34.16 33.62 35.16 34.96 38.27 38.55 38.84 39.35 39.45 37.27 37.27 36.19 35.82 36.37 36.55 36.73 36.73 36.55 36.37 36.55 35.61 35.99 35.27 35.08 35.08 34.72 34.71 33.98 34.34 34.16 33.77 33.23
30.53 31.29 32.92 32.86 32.71 33.08 33.26 33.62 33.62 33.98 33.98 34.34 34.34 33.80 33.80 34.52 34.54 35.10 36.73 35.82 36.73 37.27 37.64 37.46 36.55 36.19 36.55 36.91 36.19 36.19 35.82 34.92 34.90 35.27 35.27 35.27 35.07 35.45 35.45 34.72 34.15 33.78 33.75
29.84 30.56 31.27 32.10 32.38 32.32 32.71 33.08 33.08 33.26 33.26 33.26 33.44 33.08 35.78 35.76 35.23 35.23 35.79 36.37 37.09 37.27 37.46 37.82 36.73 36.37 36.01 35.81 35.64 35.27 35.45 35.81 35.45 35.28 35.08 35.08 34.72 34.34 34.89 35.07 34.34 34.16 33.44
28.21 30.03 30.15 30.67 31.30 31.81 32.20 32.40 32.71 32.89 32.89 33.06 32.34 33.26 36.34 33.80 34.71 34.71 34.89 35.08 35.10 35.64 36.55 36.91 36.91 36.91 36.71 36.53 36.53 36.17 35.99 35.81 35.45 35.45 35.45 35.25 34.90 34.90 34.52 34.71 34.16 33.78 33.41
28.51 29.47 29.97 30.49 30.59 31.08 31.33 31.87 32.22 32.40 32.31 32.71 32.89 32.89 33.62 33.98 33.98 34.71 34.33 33.98 33.98 34.34 34.16 35.27 36.17 34.72 35.08 36.19 36.91 37.64 37.26 36.71 36.71 36.17 35.81 35.08 34.71 34.90 34.72 34.52 34.30 33.60 33.45
29.82 29.50 29.31 29.96 30.42 30.36 30.77 31.01 31.33 32.17 32.28 32.32 32.53 32.53 32.68 33.08 33.44 33.62 33.63 33.80 34.34 34.34 34.71 35.25 35.79 35.81 35.27 35.45 36.01 36.19 36.73 36.19 35.99 36.37 36.71 35.79 35.25 34.52 34.71 34.72 34.30 34.31 34.02
26.84 29.84 30.02 29.84 30.17 30.42 30.57 30.52 30.57 31.53 32.03 31.92 32.34 31.96 32.52 32.68 32.88 32.89 33.44 33.77 33.95 34.13 34.45 35.01 35.60 35.60 35.05 35.25 35.81 35.81 35.25 33.95 35.97 35.61 35.99 35.82 35.82 35.10 34.69 34.87 34.45 34.09 34.10
22.54 29.25 29.68 29.64 29.91 30.44 30.56 30.36 31.00 30.76 31.53 31.78 31.70 32.28 32.41 32.43 32.43 33.04 33.04 33.21 33.35 33.71 34.13 34.28 34.66 34.87 34.89 35.04 35.43 35.05 34.10 33.69 34.66 34.78 35.61 35.27 34.89 34.52 34.71 34.67 34.18 33.95 34.16
MSLP
1003.65 1004.89 1006.07 1007.25 1008.28 1009.35 1010.28 1011.23 1012.05 1013.00 1013.77 1014.51 1015.10 1015.70 1016.21 1016.71 1017.13 1017.51 1017.95 1018.40 1018.81 1019.40 1019.92 1020.27 1020.62 1020.97 1021.46 1021.92 1022.49 1022.84 1023.41 1023.92 1025.11 1026.64 1026.88 1027.19 1027.62 1027.80 1027.88 1027.88 1027.97 1028.07 1028.29
1002.62 1004.12 1005.30 1006.43 1007.52 1008.73 1009.67 1010.54 1011.47 1012.35 1013.25 1013.99 1014.75 1015.40 1015.93 1016.44 1016.94 1017.35 1017.85 1018.31 1018.72 1019.32 1019.67 1020.23 1020.67 1021.02 1021.57 1021.97 1022.48 1023.03 1023.61 1024.06 1024.82 1026.17 1027.09 1027.61 1028.13 1028.53 1028.76 1028.87 1029.06 1028.99 1028.95
1001.82 1003.28 1004.69 1005.81 1006.83 1007.91 1008.93 1009.92 1010.88 1011.81 1012.74 1013.60 1014.28 1014.90 1015.53 1016.00 1016.61 1017.11 1017.52 1018.00 1018.50 1019.03 1019.43 1019.91 1020.49 1020.88 1021.70 1022.23 1022.68 1023.37 1024.04 1024.58 1025.21 1025.93 1027.08 1027.79 1028.50 1028.85 1029.23 1029.54 1029.67 1029.64 1029.58
1000.90 1002.36 1003.69 1004.98 1006.04 1007.18 1008.27 1009.35 1010.27 1011.19 1012.16 1013.06 1013.76 1014.46 1015.13 1015.68 1016.28 1016.81 1017.36 1017.88 1018.38 1018.89 1019.44 1019.84 1020.36 1020.82 1021.57 1022.25 1022.92 1023.54 1024.21 1024.85 1025.43 1026.28 1027.32 1028.07 1028.65 1029.24 1029.47 1029.88 1030.28 1030.55 1029.97
1000.30 1001.69 1002.99 1004.50 1005.64 1006.73 1007.89 1008.87 1009.89 1010.81 1011.65 1012.50 1013.34 1014.14 1014.75 1015.34 1015.87 1016.40 1017.10 1017.62 1018.19 1018.81 1019.45 1019.89 1020.38 1020.85 1021.29 1021.95 1022.60 1023.55 1024.12 1024.86 1025.60 1026.42 1027.17 1028.10 1028.89 1029.40 1029.69 1030.12 1030.58 1030.62 1030.21
1000.10 1001.50 1002.73 1004.22 1005.34 1006.41 1007.54 1008.48 1009.51 1010.45 1011.29 1012.14 1012.97 1013.63 1014.35 1014.95 1015.50 1016.04 1016.70 1017.33 1017.94 1018.51 1019.27 1019.93 1020.36 1020.99 1021.74 1022.01 1022.36 1023.12 1023.47 1024.23 1025.26 1026.29 1027.01 1027.64 1028.52 1029.18 1029.47 1029.89 1030.32 1030.64 1030.67
1000.35 1001.57 1002.70 1003.85 1005.02 1006.03 1007.13 1008.15 1009.10 1010.03 1010.87 1011.69 1012.48 1013.17 1013.95 1014.60 1015.16 1015.80 1016.45 1017.05 1017.66 1018.22 1018.87 1019.72 1020.51 1021.09 1021.63 1022.44 1023.11 1023.46 1024.16 1024.42 1024.72 1025.31 1026.29 1027.10 1027.96 1028.31 1028.77 1029.42 1029.67 1030.02 1030.16
1000.51 1001.49 1002.65 1003.86 1004.82 1005.81 1006.76 1007.75 1008.67 1009.52 1010.33 1011.14 1012.02 1012.73 1013.51 1014.22 1014.87 1015.59 1016.27 1016.90 1017.54 1018.05 1018.55 1019.33 1020.09 1020.88 1021.59 1022.32 1023.18 1023.77 1024.37 1024.74 1025.05 1025.20 1025.75 1026.23 1026.62 1027.33 1027.59 1027.84 1028.72 1029.56 1030.14
1000.93 1001.64 1002.58 1003.56 1004.70 1005.57 1006.47 1007.36 1008.28 1009.15 1010.06 1010.86 1011.55 1012.34 1013.10 1013.94 1014.60 1015.34 1016.01 1016.76 1017.45 1017.96 1018.52 1019.20 1019.86 1020.64 1021.33 1021.85 1022.95 1023.80 1024.55 1025.00 1024.96 1025.07 1025.07 1025.54 1025.98 1026.74 1027.36 1028.00 1028.98 1029.56 1030.09
1001.31 1001.90 1002.64 1003.47 1004.37 1005.25 1006.17 1006.99 1007.92 1008.78 1009.62 1010.53 1011.41 1012.04 1012.71 1013.64 1014.37 1015.03 1015.71 1016.45 1017.27 1017.95 1018.59 1019.26 1019.69 1020.36 1021.10 1021.62 1022.54 1023.37 1024.32 1024.99 1025.15 1025.57 1025.82 1025.95 1026.16 1026.83 1027.18 1027.11 1027.92 1028.80 1029.58
1001.76 1002.32 1002.97 1003.65 1004.34 1005.06 1006.04 1006.88 1007.69 1008.69 1009.67 1010.57 1011.39 1012.08 1012.77 1013.30 1014.23 1014.80 1015.41 1016.16 1016.64 1017.64 1018.37 1019.24 1019.75 1020.18 1020.92 1021.55 1021.92 1022.82 1023.17 1024.22 1024.99 1025.46 1026.12 1026.49 1026.81 1026.89 1027.34 1027.47 1027.65 1028.01 1028.74
1002.27 1002.75 1003.33 1003.90 1004.55 1005.19 1005.94 1006.90 1007.61 1008.53 1009.59 1010.60 1011.51 1012.46 1013.03 1013.41 1013.94 1014.73 1015.23 1015.86 1016.43 1017.20 1018.08 1018.86 1019.48 1019.99 1020.62 1021.33 1022.00 1022.60 1023.12 1024.15 1024.84 1025.57 1026.26 1026.86 1027.10 1027.23 1027.50 1027.69 1027.86 1028.25 1028.40
1002.86 1003.29 1003.70 1004.12 1004.68 1005.28 1005.99 1006.84 1007.68 1008.43 1009.38 1010.46 1011.32 1012.29 1013.18 1013.65 1014.21 1014.60 1015.10 1015.74 1016.38 1017.26 1017.95 1018.57 1019.23 1019.90 1020.61 1021.41 1021.78 1022.54 1023.34 1024.05 1024.76 1025.48 1025.90 1026.41 1026.43 1026.67 1027.48 1028.03 1028.28 1028.45 1028.58
1003.51 1003.70 1004.06 1004.42 1004.99 1005.47 1006.18 1006.81 1007.49 1008.23 1009.17 1010.16 1011.03 1011.88 1012.76 1013.63 1014.14 1014.77 1015.29 1015.89 1016.49 1017.27 1018.08 1018.76 1019.25 1019.93 1020.64 1021.35 1022.17 1022.75 1023.18 1023.62 1024.09 1024.66 1025.29 1025.85 1026.47 1026.88 1027.43 1027.78 1028.26 1028.51 1028.71
1004.23 1004.30 1004.49 1004.72 1005.17 1005.82 1006.32 1006.86 1007.36 1007.79 1008.07 1009.13 1010.01 1010.83 1011.94 1012.98 1013.17 1013.77 1014.62 1015.57 1016.35 1017.09 1018.17 1018.90 1019.55 1020.13 1020.83 1021.51 1022.07 1022.51 1023.03 1023.56 1023.99 1024.45 1025.01 1025.66 1026.28 1026.73 1027.13 1027.58 1027.81 1028.31 1028.57
1004.94 1005.11 1005.19 1005.27 1005.62 1006.05 1006.66 1007.45 1007.72 1007.99 1008.44 1009.03 1009.58 1010.04 1011.21 1011.77 1012.71 1013.59 1014.39 1015.10 1015.91 1016.81 1017.77 1018.52 1019.16 1019.71 1020.31 1021.04 1021.68 1022.32 1022.76 1023.19 1023.53 1024.10 1024.65 1025.13 1025.70 1026.26 1026.82 1027.35 1027.49 1027.69 1028.13
1005.63 1005.70 1005.84 1005.90 1006.03 1006.41 1006.93 1007.40 1008.14 1008.82 1008.92 1009.30 1009.82 1010.48 1011.13 1011.51 1012.45 1013.42 1014.23 1014.88 1015.66 1016.40 1017.04 1017.79 1018.41 1019.11 1019.71 1020.36 1021.02 1021.51 1022.19 1022.56 1022.84 1023.58 1024.01 1024.49 1025.11 1025.66 1026.24 1026.80 1027.27 1027.52 1027.70
1006.69 1006.48 1006.47 1006.46 1006.60 1006.83 1007.15 1007.51 1007.97 1008.45 1009.09 1009.82 1010.17 1010.57 1011.15 1011.73 1012.44 1013.27 1014.18 1015.18 1016.16 1016.29 1016.79 1017.39 1017.89 1018.49 1019.08 1019.79 1020.37 1020.85 1021.42 1021.98 1022.45 1022.88 1023.43 1023.91 1024.42 1024.96 1025.68 1026.16 1026.61 1026.98 1027.24
1007.75 1007.46 1007.29 1007.14 1007.16 1007.33 1007.48 1007.79 1008.07 1008.56 1009.12 1009.76 1010.44 1010.98 1011.34 1011.80 1012.49 1013.20 1013.82 1014.31 1015.17 1015.87 1016.36 1016.94 1017.39 1018.01 1018.52 1019.12 1019.75 1020.27 1020.68 1021.22 1021.67 1022.27 1022.81 1023.28 1023.76 1024.32 1024.85 1025.32 1025.80 1026.28 1026.76
1008.53 1008.29 1008.10 1008.01 1007.89 1007.90 1008.03 1008.30 1008.64 1008.98 1009.41 1009.89 1010.39 1010.82 1011.38 1012.08 1012.70 1013.23 1013.70 1014.16 1014.61 1015.22 1015.74 1016.27 1016.72 1017.24 1017.69 1018.27 1018.94 1019.48 1020.06 1020.61 1021.06 1021.64 1022.05 1022.50 1022.98 1023.47 1024.00 1024.55 1025.15 1025.65 1026.07
1009.11 1008.94 1008.94 1008.82 1008.63 1008.55 1008.49 1008.60 1008.88 1009.23 1009.64 1010.04 1010.44 1010.80 1010.99 1011.41 1011.96 1012.59 1013.09 1013.58 1013.96 1014.43 1015.02 1015.59 1016.13 1016.61 1017.03 1017.59 1018.10 1018.67 1019.31 1019.85 1020.24 1020.76 1021.35 1021.78 1022.32 1022.98 1023.29 1023.78 1024.32 1024.89 1025.35
1009.69 1009.57 1009.50 1009.58 1009.37 1009.22 1009.20 1009.11 1009.19 1009.46 1009.80 1010.13 1010.47 1010.78 1011.02 1011.43 1011.83 1012.36 1012.90 1013.31 1013.63 1014.10 1014.53 1014.99 1015.49 1016.02 1016.27 1016.67 1017.24 1017.72 1018.28 1018.87 1019.48 1019.89 1020.45 1020.98 1021.53 1022.09 1022.57 1023.08 1023.65 1024.18 1024.75
1010.25 1009.90 1009.92 1009.96 1009.86 1009.58 1009.66 1009.64 1009.52 1009.64 1009.91 1010.16 1010.42 1010.68 1011.01 1011.36 1011.70 1012.11 1012.59 1013.07 1013.48 1013.93 1014.34 1014.74 1015.06 1015.37 1015.81 1016.10 1016.45 1016.71 1017.12 1017.49 1017.97 1018.70 1019.44 1020.10 1020.71 1021.29 1021.80 1022.26 1022.76 1023.40 1023.99
1010.51 1010.07 1010.11 1010.18 1010.00 1009.71 1009.65 1009.77 1009.70 1009.80 1009.91 1010.14 1010.45 1010.75 1010.97 1011.24 1011.60 1011.95 1012.32 1012.74 1013.17 1013.61 1013.90 1014.23 1014.49 1014.84 1015.06 1015.42 1015.70 1016.00 1016.33 1016.68 1017.18 1017.76 1018.33 1019.09 1019.80 1020.47 1021.03 1021.49 1021.99 1022.48 1023.08
1010.79 1010.31 1010.22 1010.01 1009.81 1009.66 1009.59 1009.89 1009.89 1009.88 1009.96 1010.08 1010.36 1010.71 1011.02 1011.24 1011.47 1011.75 1012.07 1012.44 1012.78 1013.09 1013.34 1013.60 1013.87 1014.08 1014.37 1014.66 1014.98 1015.33 1015.74 1016.14 1016.54 1017.07 1017.72 1018.33 1018.94 1019.51 1020.11 1020.63 1021.19 1021.75 1022.25
1011.61 1010.71 1010.20 1010.06 1009.80 1009.51 1009.62 1009.81 1009.83 1009.86 1010.06 1010.11 1010.14 1010.41 1010.73 1011.03 1011.31 1011.57 1011.79 1012.10 1012.41 1012.62 1012.81 1013.02 1013.22 1013.46 1013.69 1013.93 1014.19 1014.63 1015.06 1015.47 1015.96 1016.40 1017.01 1017.60 1018.26 1018.84 1019.36 1019.88 1020.46 1020.95 1021.35
Wind_Speed
21 20 18 16 17 14 14 14 13 12 13 13 13 12 11 10 8 8 6 7 8 7 6 9 8 9 7 7 4 5 5 3 7 2 2 3 4 6 6 6 6 6 5
21 19 19 17 17 16 15 15 15 14 13 14 13 12 11 10 9 9 8 7 10 9 9 9 10 8 9 7 5 5 4 3 7 11 2 2 5 4 4 5 5 4 4
21 20 18 17 17 17 16 15 15 15 14 14 14 13 12 12 10 9 9 9 9 9 10 11 11 11 7 4 5 6 5 4 5 7 4 2 3 2 4 4 3 3 3
21 19 19 18 18 17 15 15 16 15 15 15 14 13 12 12 11 10 10 9 8 8 8 9 10 11 9 8 6 7 6 7 7 7 4 3 3 2 3 2 2 2 1
20 18 19 16 16 15 15 15 15 15 14 15 14 13 12 12 9 12 11 11 11 9 6 8 8 8 11 10 9 8 9 6 7 7 5 3 2 1 2 1 1 2 2
17 16 17 16 16 15 15 15 15 14 14 14 14 14 13 9 13 14 12 11 11 12 10 7 7 9 10 12 11 11 11 14 10 7 7 7 5 3 2 3 3 2 2
15 14 15 16 16 16 15 15 15 15 15 15 14 14 14 11 17 16 14 10 11 11 12 10 7 5 8 8 10 12 8 7 9 9 12 11 9 8 6 3 3 3 3
13 14 15 15 15 15 15 15 15 14 16 15 14 14 13 10 17 17 16 10 9 10 11 11 10 9 8 10 10 8 7 6 7 5 7 7 6 10 7 4 5 4 1
12 14 15 16 16 15 16 16 13 14 13 14 14 14 14 10 17 17 15 10 8 8 8 9 10 10 13 15 11 10 7 3 5 6 8 10 10 13 9 6 3 3 1
9 12 13 14 15 16 15 15 13 13 13 10 12 12 12 11 16 18 13 8 10 6 6 6 11 11 17 17 12 12 9 6 7 6 4 7 7 8 12 3 5 3 2
7 9 10 11 14 15 14 11 12 11 11 11 11 9 10 12 13 18 15 9 9 8 7 6 5 15 17 15 13 10 9 11 8 6 4 3 3 5 3 2 4 3 3
7 8 8 10 8 10 14 10 12 12 11 10 10 6 3 7 12 14 16 11 11 10 8 5 6 16 18 15 13 10 17 10 6 5 5 3 3 2 1 2 4 3 2
6 7 7 8 7 10 13 12 10 11 10 10 10 9 6 4 6 14 15 15 14 8 5 8 11 16 16 11 12 16 13 7 6 4 5 3 3 3 5 3 4 4 4
5 6 6 9 8 8 8 9 10 10 9 9 9 9 7 6 7 7 6 8 11 8 10 7 8 10 10 8 7 10 6 7 8 7 5 3 3 3 3 3 2 1 2
5 4 5 5 9 7 6 7 9 9 12 13 11 10 11 9 10 14 12 8 8 8 8 5 4 5 7 6 4 6 5 5 5 4 3 4 3 3 2 2 2 2 2
5 3 3 4 5 6 7 5 10 8 10 8 10 10 6 8 16 18 17 15 17 20 4 5 5 7 9 9 8 6 4 6 5 5 4 5 6 5 5 2 1 3 3
5 4 3 4 3 6 5 7 7 6 8 9 11 11 11 11 19 19 19 17 20 15 5 7 9 8 7 8 8 7 7 7 5 6 6 7 6 5 7 4 2 2 2
6 6 3 3 3 3 3 4 5 8 7 4 3 7 12 15 18 19 18 13 8 2 3 7 7 8 7 8 8 8 5 6 6 6 6 6 7 6 4 5 6 5 3
6 4 4 3 3 3 3 3 3 4 4 4 4 4 6 14 16 19 23 9 9 8 5 6 6 7 7 7 7 6 7 8 7 7 6 6 7 6 5 5 6 7 5
6 7 4 3 2 2 2 3 3 3 4 4 4 3 5 6 6 6 7 5 8 8 7 8 7 7 8 9 8 8 7 6 6 7 7 7 7 7 6 7 6 6 7
4 4 6 3 2 2 2 3 3 3 3 3 3 3 9 7 8 9 9 9 9 9 9 9 7 7 7 7 7 7 7 7 7 7 7 7 7 7 6 6 6 6 5
3 2 3 3 2 1 1 1 3 3 3 3 2 3 11 3 5 6 6 6 6 6 5 7 7 8 9 9 9 9 9 9 8 8 8 7 7 7 7 7 6 6 7
2 2 2 1 2 1 1 1 1 2 2 2 3 3 4 4 4 6 6 5 5 5 4 5 6 5 5 7 7 8 10 10 10 9 9 8 8 8 7 7 7 7 7
4 2 1 2 2 2 1 1 1 2 3 3 2 2 3 4 4 5 5 5 6 6 7 7 7 8 7 7 7 8 7 6 8 10 12 9 9 8 7 6 8 9 8
7 4 4 3 2 2 1 2 1 2 2 3 3 3 2 3 3 4 4 5 5 6 7 7 7 9 11 12 11 10 8 9 10 9 9 9 10 12 10 8 8 8 8
6 6 3 3 2 1 2 2 3 3 3 3 3 3 4 4 4 4 4 5 5 5 6 6 8 10 11 11 13 12 11 12 12 13 9 9 9 8 8 9 12 8 10
Wind_Direction
182 178 177 177 177 170 174 173 172 166 169 173 173 172 172 170 166 160 159 152 144 139 138 149 149 151 149 140 128 109 117 103 114 84 86 70 61 64 43 48 42 56 58
177 175 175 173 170 171 176 176 170 171 171 172 171 172 172 170 167 165 159 160 154 154 153 152 150 146 144 142 139 126 129 102 134 135 104 82 74 55 58 58 38 42 55
177 171 172 171 173 177 177 172 170 168 170 171 171 173 174 170 169 166 165 161 161 161 163 158 158 151 143 134 125 123 110 99 118 137 115 98 95 78 69 56 44 31 35
176 171 171 172 175 177 172 171 169 169 167 171 173 172 174 168 171 166 163 158 157 157 164 159 161 161 151 142 132 126 122 117 119 124 104 87 94 51 76 93 21 359 340
174 172 172 169 173 170 166 166 167 168 170 169 166 170 170 172 172 168 168 162 159 152 153 154 160 150 145 154 148 148 136 129 135 143 141 111 135 119 160 156 116 306 308
172 172 166 164 167 164 163 163 163 166 166 165 170 170 170 177 168 163 164 164 162 162 164 157 144 139 146 147 131 146 154 152 152 157 171 175 169 157 144 171 124 120 258
168 163 162 162 164 165 162 162 165 166 164 170 171 170 174 176 166 164 160 165 166 171 171 164 150 147 141 135 131 126 116 121 149 157 169 181 177 180 155 150 164 164 204
163 158 157 162 163 162 162 167 167 166 169 171 172 173 171 173 168 163 160 159 167 171 169 169 166 158 154 141 146 136 141 142 160 158 164 162 182 172 173 157 159 132 50
155 156 159 162 162 161 166 168 168 166 168 172 172 169 172 170 168 163 160 161 160 161 154 158 159 161 156 144 149 144 136 114 67 152 158 159 157 158 147 121 142 109 255
145 150 157 161 163 166 167 168 168 169 167 162 167 174 168 165 170 165 162 162 161 153 139 145 154 161 159 155 154 153 148 168 137 115 94 85 117 143 163 175 149 129 119
122 138 151 158 163 164 162 165 159 158 155 161 160 163 164 166 173 166 160 168 166 164 161 159 165 153 159 159 153 168 165 153 148 132 115 96 113 145 167 132 156 132 143
129 129 135 150 155 157 156 155 157 152 151 154 152 134 135 156 162 171 163 158 158 165 169 161 165 163 162 160 157 144 138 132 136 131 130 127 142 158 160 113 118 98 72
126 135 138 132 139 154 155 154 151 155 156 159 163 164 159 146 162 165 159 153 158 154 152 161 157 166 162 155 146 142 140 142 147 134 162 176 184 138 120 91 73 90 70
122 134 138 144 139 145 153 160 158 160 159 161 167 172 159 162 163 165 161 153 143 146 139 144 164 160 159 150 133 147 159 163 168 174 178 108 102 124 135 144 129 123 102
69 92 118 137 148 140 137 160 166 178 173 168 178 171 162 177 191 176 165 159 162 150 125 114 124 137 153 153 146 162 153 153 161 150 135 149 139 142 137 143 116 131 143
59 62 63 115 122 131 133 100 53 103 106 91 137 169 170 146 151 168 168 154 146 144 112 149 157 164 171 172 171 170 169 178 180 156 149 160 168 171 158 142 130 154 169
56 56 57 79 106 133 134 151 138 56 91 115 133 140 160 156 158 165 168 157 158 148 150 169 170 173 171 173 177 175 181 192 160 176 169 174 168 166 161 167 152 139 176
15 35 59 60 84 105 126 133 141 154 155 141 123 152 156 152 157 163 157 133 159 67 130 169 172 173 172 178 179 180 169 168 178 176 173 170 170 164 158 177 185 187 169
9 12 5 39 75 92 92 93 114 124 128 126 108 75 149 158 160 163 164 179 176 183 166 168 168 174 175 173 181 181 178 179 181 174 177 174 169 165 179 180 182 185 149
13 14 14 1 29 81 101 117 112 115 126 142 146 141 133 119 157 168 181 171 175 185 183 184 181 179 182 181 181 181 180 173 173 183 183 181 177 182 186 181 182 177 192
3 2 352 358 358 357 97 120 122 127 136 143 147 152 165 168 170 178 184 192 192 189 188 190 187 188 183 179 173 170 177 185 184 180 182 183 176 186 187 181 179 184 165
358 9 9 336 340 5 337 105 123 124 135 145 134 160 170 132 158 169 180 189 190 195 191 191 193 198 193 187 184 181 184 186 185 183 188 185 182 188 180 182 177 173 175
335 5 346 297 310 329 336 167 136 133 136 147 157 158 174 179 171 179 180 176 170 173 167 183 195 182 181 188 191 193 190 194 191 179 181 182 184 186 184 184 184 176 180
315 320 275 268 240 227 217 248 161 168 156 159 155 163 166 170 172 177 173 173 181 186 185 193 201 202 191 194 196 196 199 184 174 185 180 181 187 184 184 183 182 186 181
321 303 287 263 232 212 169 199 202 183 184 170 166 159 169 173 174 175 177 184 189 192 201 203 207 207 197 195 199 197 190 178 180 174 182 185 189 185 189 189 182 181 176
304 295 271 264 266 201 197 200 200 183 193 192 183 187 185 185 185 189 186 187 196 200 200 206 212 209 207 205 201 193 190 185 184 177 177 181 182 186 186 190 183 182 180